User: anonymous
Location: Caltech
(34.1382°N, 118.1253°W)
Time: 09:18:36
(UTC-07:00)
Language:

Iridium 14 - Orbit

View from above orbital plane
View from above orbital plane
View from above satellite
View from above satellite

Ground track
Ground track

The orbit data is extracted from the following two-line orbital elements,

1 25777U 99032A   14108.21452513  .00000767  00000-0  17359-3 0  8906
2 25777 086.5160 347.1396 0002205 101.4724 015.2608 14.54937566788709
Epoch (UTC): 18 April 2014 05:08:54
Eccentricity: 0.0002205
inclination: 86.5160°
perigee height: 708 km
apogee height: 711 km
right ascension of ascending node: 347.1396°
argument of perigee: 101.4724°
revolutions per day: 14.54937566
mean anomaly at epoch: 15.2608°
orbit number at epoch: 78870

The dashed part of the orbit path shows where the satellite is in the earth's shadow,  

DLR